STARLINK-2322, 47791

Orbit data source: Space-Track

STARLINK-2322, 47791 is a payload satellite owned by SpaceX/Seattle (US) in LEO that was launched on Thu, 11 Mar 2021 UTC via an FALCON 9 launch vehicle from the Air Force Eastern Test Range (AFETR). Payload-class satellites include a variety of spacecraft equipped with specific instruments for various scientific and technological missions. These include communications satellites like Starlink; space stations such as the ISS; scientific satellites like the Hubble; Earth observation satellites from companies like Planet Labs, Umbra, and HawkEye 360; GPS; miniature CubeSats for education and research; and military/defense satellites.

Loading next visibility...
Identifier
47791, 2021-018E
Orbit
LEO
Country
Flag of USUS
Related business
Manufacturer
SpaceX/Seattle
Mission
Operational Commercial Communications
Bus & Motor
STARLINK, Unknown motor
Mass
260 kg wet, ~248 kg dry
Launch date (UTC)
2021-03-11 (5 years ago)
Launch vehicle
FALCON 9
Launch site
Air Force Eastern Test Range (AFETR)
Object type
Payload
Rocket body
Debris
Shape & HBR
Box + 1 Pan, 10.1 m
Radar Cross Section
13.562 m², Large (>1 m²)

Expand to show TLE details & history
Last TLE update: 12 hours ago

TLE from 12 hours ago
0 STARLINK-2322
1 47791U 21018E   26035.29589331  .00016978  00000-0  58373-3 0  9996
2 47791  53.1596  38.0532 0001802  97.2493 262.8713 15.30217753271626
Epoch: 2026-02-04T07:06Z
TLE epoch observation values (Epoch: 2026-02-04T07:06:05.181Z)
Latitude
-0.00002°
Longitude
157.06708°
Altitude
476.215 km
Speed
7.629 km/s
True Right ascension
02h 32m 12s
True Declination
0° 00' 00"
Sunlit
Object was in daylight at epoch
Visualization orbit readout
Latitude
Unknown
Longitude
Unknown
Altitude
Unknown
Speed
Unknown
Apparent Right ascension
Unknown
Apparent Declination
Unknown
Sunlit
N/A
Visualization observer readout
Local Sidereal Time
21:27:49
Azimuth
Unknown
Elevation
Unknown
Doppler factor
Unknown
Orbital elements
Apogee altitude
476.654 km
Perigee altitude
474.184 km
Semi-major axis
6,853.556 km
Eccentricity
0.00018
Inclination
53.1596°
RAAN
38.0532°
Arg. of periapsis
97.2493°
True anomaly
262.85081°
Mean anomaly
262.8713°
Eccentric anomaly
262.86106°
Mean motion
3.82533 °/min
Orbital period
94.11 mins
BSTAR
0.00058373
Loading maneuver chart data...
Computing Atmospheric mass density...
Loading historical data...
Loading historical data...
Loading historical data...
Loading historical data...
Loading historical data...
Loading historical data...
Loading historical data...

Documentation

Showing up to 5 results
|